Latest Weather Observations for Pallamana

IDS60801

Issued at 11:35 pm CST Tuesday 2 September 2014 (issued every 30 minutes, with the page automatically refreshed every 10 minutes)

About weather observations | Map of weather stations | Latest weather observations for SA | Other Formats
Station Details ID: 024584 Name: PALLAMANA AERODROME Lat: -35.06 Lon: 139.23 Height: 45.0 m
Data from the previous 72 hours. | See also: Recent months at Pallamana
Date/Time
CST
Temp
°C
App
Temp
°C
Dew
Point
Rel
Hum
%
Delta-T
°C
Wind Press
QNH
hPa
Press
MSL
hPa
Rain
since 9 am
mm
Dir
 
Spd
km/h
Gust
km/h
Spd
kts
Gust
kts
02/11:30pm 6.7 3.2 5.6 93 0.5 WSW 13 17 7 9 1027.1 1027.1 1.4
02/11:00pm 6.3 2.7 5.2 93 0.5 WSW 13 15 7 8 1027.1 1027.1 1.4
02/10:30pm 6.3 2.7 5.2 93 0.5 SW 13 17 7 9 1027.0 1027.0 1.4
02/10:00pm 7.2 3.4 5.9 91 0.6 W 15 17 8 9 1027.3 1027.3 1.4
02/09:30pm 7.1 2.5 5.8 91 0.6 WSW 19 20 10 11 1027.3 1027.3 1.4
02/09:00pm 7.1 2.9 5.5 89 0.7 WSW 17 19 9 10 1027.1 1027.1 1.4
02/08:30pm 7.3 3.1 5.5 88 0.8 WSW 17 20 9 11 1027.1 1027.1 1.4
02/08:00pm 7.8 4.0 5.8 87 0.9 WSW 15 17 8 9 1027.1 1027.1 1.4
02/07:30pm 7.7 3.5 5.7 87 0.9 SW 17 19 9 10 1026.6 1026.6 1.4
02/07:00pm 8.1 3.6 5.9 86 1.0 SW 19 20 10 11 1026.5 1026.5 1.4
02/06:30pm 8.2 3.9 5.3 82 1.3 SW 17 19 9 10 1026.2 1026.2 1.4
02/06:00pm 9.2 5.6 5.2 76 1.8 SSW 13 15 7 8 1026.0 1026.0 1.4
02/05:30pm 11.6 6.7 4.2 60 3.3 SSW 19 24 10 13 1025.7 1025.7 1.4
02/05:00pm 12.8 8.0 4.7 58 3.7 SSW 19 28 10 15 1025.4 1025.4 1.4
02/04:30pm 13.5 7.5 3.2 49 4.6 SSW 24 32 13 17 1025.2 1025.2 1.4
02/04:00pm 14.1 8.2 3.7 49 4.7 SSW 24 33 13 18 1024.9 1024.9 1.4
02/03:30pm 14.2 8.7 4.1 50 4.6 SSW 22 33 12 18 1024.7 1024.7 1.4
02/03:00pm 14.4 8.8 5.5 55 4.2 SSW 24 35 13 19 1024.6 1024.6 1.4
02/02:30pm 14.7 9.0 5.1 52 4.5 S 24 33 13 18 1024.6 1024.6 1.4
02/02:00pm 14.6 9.1 5.7 55 4.2 S 24 35 13 19 1024.6 1024.6 1.4
02/01:30pm 14.0 8.9 6.2 59 3.7 S 22 30 12 16 1024.4 1024.4 1.4
02/01:00pm 13.7 8.3 6.4 61 3.5 S 24 35 13 19 1024.6 1024.6 1.4
02/12:30pm 14.1 8.3 6.4 60 3.7 S 26 37 14 20 1024.8 1024.8 1.4
02/12:00pm 13.4 9.2 7.4 67 2.9 S 19 26 10 14 1024.9 1024.9 1.4
02/11:30am 11.1 7.1 8.4 83 1.3 SSW 19 30 10 16 1025.1 1025.1 1.4
02/11:17am 11.9 6.0 7.3 73 2.2 S 28 46 15 25 1025.0 1025.0 0.6
02/11:00am 14.0 9.2 7.2 63 3.3 S 22 32 12 17 1025.0 1025.0 0.6
02/10:30am 12.8 8.5 7.9 72 2.4 S 20 26 11 14 1025.0 1025.0 0.6
02/10:00am 11.5 8.2 8.2 80 1.6 S 15 20 8 11 1025.3 1025.3 0.6
02/09:30am 10.6 6.5 7.7 82 1.4 SSW 19 26 10 14 1025.1 1025.1 0.4
02/09:00am 11.7 7.3 7.6 76 2.0 SW 20 28 11 15 1025.0 1025.0 2.2
02/08:30am 10.5 6.1 7.3 80 1.5 SW 20 28 11 15 1024.7 1024.7 2.2
02/08:00am 9.3 4.4 6.7 84 1.2 SW 22 30 12 16 1024.3 1024.3 2.2
02/07:30am 8.6 3.9 6.2 85 1.1 WSW 20 24 11 13 1023.8 1023.8 2.2
02/07:00am 7.3 2.3 4.5 82 1.2 W 20 24 11 13 1023.2 1023.2 2.2
02/06:30am 6.6 1.7 4.0 83 1.1 WSW 19 22 10 12 1022.7 1022.7 2.2
02/06:00am 6.5 1.4 4.2 85 1.0 WSW 20 24 11 13 1022.1 1022.1 2.2
02/05:30am 6.3 1.4 4.2 86 0.9 WSW 19 20 10 11 1021.8 1021.8 2.2
02/05:00am 6.7 1.6 3.9 82 1.2 WSW 20 24 11 13 1021.3 1021.3 2.2
02/04:30am 6.9 2.3 3.6 79 1.4 W 17 22 9 12 1020.8 1020.8 2.2
02/04:00am 6.5 2.4 4.2 85 1.0 WSW 15 19 8 10 1020.7 1020.7 2.2
02/03:30am 6.6 2.5 4.5 86 0.9 SW 15 17 8 9 1020.3 1020.3 2.0
02/03:00am 7.3 2.5 4.8 84 1.1 SSW 19 28 10 15 1020.4 1020.4 1.8
02/02:30am 7.8 2.7 3.3 73 1.9 W 19 24 10 13 1019.9 1019.9 1.4
02/02:00am 7.6 2.1 4.1 78 1.5 WSW 22 28 12 15 1019.8 1019.8 1.4
02/01:30am 6.5 2.3 3.9 83 1.1 W 15 17 8 9 1019.7 1019.7 1.2
02/01:00am 4.7 1.5 3.0 89 0.7 SW 9 13 5 7 1019.7 1019.7 1.2
02/12:30am 6.1 3.1 4.0 86 0.9 SSW 9 9 5 5 1019.4 1019.4 1.2
02/12:00am 8.3 4.0 5.4 82 1.3 SW 17 20 9 11 1019.4 1019.4 1.2
 
Date/Time
CST
Temp
°C
App
Temp
°C
Dew
Point
Rel
Hum
%
Delta-T
°C
Wind Press
QNH
hPa
Press
MSL
hPa
Rain
since 9 am
mm
Dir
 
Spd
km/h
Gust
km/h
Spd
kts
Gust
kts
01/11:30pm 8.5 3.9 3.9 73 2.0 SSW 17 17 9 9 1019.3 1019.3 1.2
01/11:00pm 8.9 2.9 3.6 69 2.3 W 24 33 13 18 1018.7 1018.7 1.2
01/10:30pm 8.5 3.7 4.4 75 1.8 W 19 28 10 15 1018.5 1018.5 1.2
01/10:00pm 8.6 3.8 4.8 77 1.7 W 19 22 10 12 1018.4 1018.4 1.2
01/09:30pm 9.0 4.1 5.2 77 1.7 W 20 26 11 14 1018.2 1018.2 1.2
01/09:00pm 8.0 4.5 5.6 85 1.1 WSW 13 15 7 8 1017.9 1017.9 1.2
01/08:30pm 10.1 4.0 6.5 78 1.7 SW 28 44 15 24 1017.6 1017.6 1.2
01/08:22pm 10.5 4.3 6.0 74 2.1 SW 28 44 15 24 1017.4 1017.4 1.2
01/08:00pm 10.5 7.2 6.2 75 2.0 W 13 17 7 9 1017.2 1017.2 1.2
01/07:30pm 10.2 6.8 6.1 76 1.9 WSW 13 15 7 8 1016.8 1016.8 1.2
01/07:00pm 10.6 7.6 6.1 74 2.1 W 11 13 6 7 1016.6 1016.6 1.2
01/06:30pm 9.4 6.6 7.1 85 1.1 SW 11 13 6 7 1016.2 1016.2 1.2
01/06:00pm 8.8 5.5 6.2 84 1.2 SW 13 15 7 8 1015.7 1015.7 1.2
01/05:30pm 10.8 7.1 6.3 74 2.1 SSW 15 19 8 10 1015.2 1015.2 1.2
01/05:00pm 11.6 6.1 6.1 69 2.6 SSW 24 33 13 18 1015.0 1015.0 1.2
01/04:30pm 12.7 6.8 5.7 62 3.3 SSW 26 35 14 19 1014.6 1014.6 1.2
01/04:00pm 14.7 9.5 5.7 55 4.3 SW 22 30 12 16 1014.2 1014.2 1.2
01/03:30pm 14.3 9.0 6.7 60 3.7 SW 24 32 13 17 1014.0 1014.0 1.2
01/03:00pm 13.1 9.0 8.7 74 2.2 SSW 20 30 11 16 1013.9 1013.9 1.2
01/02:30pm 15.6 9.6 5.3 50 4.9 SW 26 33 14 18 1013.5 1013.5 1.0
01/02:00pm 14.7 9.6 6.2 56 4.1 SSW 22 35 12 19 1013.3 1013.3 1.0
01/01:30pm 16.6 10.6 3.4 41 6.1 W 24 35 13 19 1013.2 1013.2 1.0
01/01:00pm 16.1 8.6 4.6 46 5.4 W 33 43 18 23 1013.5 1013.5 1.0
01/12:30pm 16.0 8.8 5.1 48 5.2 WSW 32 44 17 24 1013.5 1013.5 1.0
01/12:00pm 15.6 9.5 6.4 54 4.5 WSW 28 37 15 20 1013.7 1013.7 1.0
01/11:30am 14.9 9.8 7.7 62 3.6 WSW 24 33 13 18 1013.7 1013.7 1.0
01/11:00am 13.1 9.3 8.9 75 2.1 W 19 22 10 12 1013.9 1013.9 1.0
01/10:30am 13.6 9.6 9.1 74 2.3 WSW 20 30 11 16 1014.0 1014.0 1.0
01/10:00am 12.4 10.6 10.7 89 0.9 WNW 11 15 6 8 1013.9 1013.9 1.0
01/09:30am 11.4 9.7 9.8 90 0.8 W 9 13 5 7 1013.7 1013.7 1.0
01/09:00am 11.1 8.8 9.1 87 1.0 W 11 15 6 8 1013.5 1013.5 1.6
01/08:30am 10.6 5.4 8.8 89 0.9 SW 26 35 14 19 1013.5 1013.5 1.2
01/08:20am 11.2 5.8 9.6 90 0.8 SW 28 37 15 20 1013.4 1013.4 1.2
01/08:00am 12.2 9.7 9.6 84 1.3 WNW 13 17 7 9 1013.2 1013.2 0.6
01/07:30am 12.1 10.3 9.5 84 1.3 W 9 13 5 7 1012.5 1012.5 0.4
01/07:00am 11.7 9.1 9.5 86 1.1 WNW 13 17 7 9 1012.3 1012.3 0.4
01/06:30am 10.8 9.5 9.2 90 0.8 N 6 7 3 4 1012.2 1012.2 0.4
01/06:00am 10.6 8.7 9.2 91 0.7 N 9 11 5 6 1011.8 1011.8 0.4
01/05:30am 11.0 9.8 9.6 91 0.7 NW 6 9 3 5 1011.7 1011.7 0.4
01/05:00am 11.0 9.0 10.0 93 0.5 N 11 13 6 7 1011.6 1011.6 0.4
01/04:30am 11.1 9.8 9.9 92 0.6 NE 7 9 4 5 1011.0 1011.1 0.4
01/04:00am 11.3 11.4 10.1 92 0.6 CALM 0 6 0 3 1011.1 1011.2 0.2
01/03:30am 11.8 10.6 10.4 91 0.7 W 7 7 4 4 1011.1 1011.2 0.0
01/03:00am 12.0 9.2 10.1 88 1.0 WSW 15 19 8 10 1011.5 1011.5 0.0
01/02:30am 12.3 8.5 9.8 85 1.3 SW 20 28 11 15 1011.3 1011.3 0.0
01/02:00am 13.6 9.9 9.5 76 2.1 WSW 19 28 10 15 1011.5 1011.5 0.0
01/01:30am 14.3 10.7 9.7 74 2.4 WSW 19 28 10 15 1011.1 1011.2 0.0
01/01:00am 14.0 11.3 10.4 79 1.9 W 15 19 8 10 1011.4 1011.4 0.0
01/12:30am 14.3 9.8 10.1 76 2.2 W 24 32 13 17 1011.5 1011.5 0.0
01/12:00am 14.6 9.7 10.0 74 2.4 W 26 35 14 19 1010.2 1010.3 0.0
 
Date/Time
CST
Temp
°C
App
Temp
°C
Dew
Point
Rel
Hum
%
Delta-T
°C
Wind Press
QNH
hPa
Press
MSL
hPa
Rain
since 9 am
mm
Dir
 
Spd
km/h
Gust
km/h
Spd
kts
Gust
kts
31/11:30pm 14.5 11.5 9.2 70 2.7 WSW 15 20 8 11 1010.5 1010.6 0.0
31/11:00pm 14.9 10.7 7.4 61 3.7 W 19 28 10 15 1010.8 1010.9 0.0
31/10:30pm 15.5 11.6 3.5 44 5.5 WSW 13 20 7 11 1010.4 1010.5 0.0
31/10:00pm 15.7 11.5 3.8 45 5.5 W 15 20 8 11 1010.3 1010.4 0.0
31/09:30pm 15.3 12.4 4.4 48 5.1 N 9 11 5 6 1010.3 1010.4 0.0
31/09:00pm 14.2 12.8 5.6 56 4.1 NE 2 11 1 6 1010.0 1010.1 0.0
31/08:30pm 17.5 14.5 4.2 41 6.3 NW 9 13 5 7 1010.3 1010.4 0.0
31/08:00pm 16.1 12.9 4.9 47 5.3 NW 11 17 6 9 1010.5 1010.6 0.0
31/07:30pm 15.2 12.2 5.8 53 4.5 N 11 13 6 7 1010.2 1010.3 0.0
31/07:00pm 16.2 12.3 5.4 48 5.2 N 15 17 8 9 1010.1 1010.2 0.0
31/06:30pm 16.0 13.4 5.9 51 4.9 N 9 13 5 7 1010.5 1010.6 0.0
31/06:00pm 17.2 14.5 5.7 46 5.6 NNW 9 11 5 6 1010.7 1010.8 0.0
31/05:30pm 17.8 13.1 5.2 43 6.1 NNE 19 20 10 11 1010.3 1010.4 0.0
31/05:00pm 19.1 15.5 4.9 39 6.9 N 13 15 7 8 1010.3 1010.4 0.0
31/04:30pm 20.8 16.5 3.4 31 8.3 N 15 19 8 10 1010.4 1010.5 0.0
31/04:00pm 21.2 15.2 3.1 30 8.6 N 24 32 13 17 1010.1 1010.2 0.0
31/03:30pm 21.1 15.3 2.3 29 8.8 N 22 32 12 17 1010.7 1010.8 0.0
31/03:00pm 21.4 15.6 2.5 28 8.9 N 22 33 12 18 1011.1 1011.2 0.0
31/02:30pm 21.4 16.1 2.8 29 8.8 N 20 26 11 14 1011.4 1011.4 0.0
31/02:00pm 21.8 16.9 1.8 26 9.3 N 17 24 9 13 1012.3 1012.3 0.0
31/01:30pm 22.2 16.2 1.2 25 9.7 N 22 30 12 16 1012.6 1012.6 0.0
31/01:00pm 22.8 15.8 2.0 25 9.8 N 28 33 15 18 1012.7 1012.7 0.0
31/12:30pm 22.5 14.7 -0.9 21 10.4 NNW 30 43 16 23 1013.6 1013.6 0.0
31/12:00pm 23.3 14.6 -3.5 16 11.4 NNW 33 44 18 24 1014.0 1014.0 0.0
31/11:30am 22.6 14.3 -2.0 19 10.7 NNW 32 46 17 25 1014.5 1014.5 0.0
31/11:00am 22.0 15.8 -0.4 22 10.0 N 22 35 12 19 1015.0 1015.0 0.0
31/10:30am 20.3 15.6 3.1 32 8.1 NNW 17 24 9 13 1015.5 1015.5 0.0
31/10:00am 19.0 14.6 4.7 39 6.9 N 17 22 9 12 1015.3 1015.3 0.0
31/09:30am 16.6 14.3 7.4 54 4.6 N 9 11 5 6 1015.7 1015.7 0.0
31/09:00am 15.5 12.5 6.2 54 4.5 N 11 13 6 7 1016.0 1016.0 0.0
31/08:30am 11.9 9.9 6.9 71 2.4 N 7 9 4 5 1016.5 1016.5 0.0
31/08:00am 9.4 6.5 4.9 73 2.0 NNW 9 11 5 6 1016.3 1016.3 0.0
31/07:30am 9.1 6.1 4.1 71 2.2 NNW 9 11 5 6 1016.5 1016.5 0.0
31/07:00am 5.3 3.1 3.4 87 0.8 N 4 7 2 4 1016.7 1016.7 0.0
31/06:30am 4.6 3.0 2.6 87 0.8 CALM 0 7 0 4 1016.3 1016.3 0.0
31/06:00am 4.8 3.3 2.8 87 0.8 CALM 0 0 0 0 1016.0 1016.0 0.0
31/05:30am 5.4 2.8 3.0 84 1.0 NNW 6 7 3 4 1016.0 1016.0 0.0
31/05:00am 7.4 4.4 3.9 78 1.5 NW 9 11 5 6 1015.9 1015.9 0.0
31/04:30am 6.8 3.4 4.2 83 1.1 N 11 11 6 6 1015.7 1015.7 0.0
31/04:00am 7.4 3.4 2.9 73 1.9 NNW 13 17 7 9 1016.1 1016.1 0.0
31/03:30am 4.3 0.9 1.8 84 1.0 N 9 11 5 6 1016.0 1016.0 0.0
31/03:00am 4.9 1.6 2.7 86 0.9 NNW 9 11 5 6 1016.5 1016.5 0.0
31/02:30am 5.9 2.7 3.0 82 1.2 NNW 9 11 5 6 1016.8 1016.8 0.0
31/02:00am 5.6 2.5 3.4 86 0.9 NNW 9 11 5 6 1016.9 1016.9 0.0
31/01:30am 6.3 3.3 4.0 85 1.0 NNW 9 11 5 6 1017.2 1017.2 0.0
31/01:00am 6.8 3.4 4.0 82 1.2 NNW 11 13 6 7 1017.4 1017.4 0.0
31/12:30am 7.8 4.5 4.6 80 1.4 NNW 11 15 6 8 1017.7 1017.7 0.0
31/12:00am 6.1 3.0 3.7 84 1.0 N 9 11 5 6 1018.0 1018.0 0.0

Other Formats:

Comma delimited format used in spreadsheet applications
http://www.bom.gov.au/fwo/IDS60801/IDS60801.95818.axf

JavaScript Object Notation format (JSON) in row-major order
http://www.bom.gov.au/fwo/IDS60801/IDS60801.95818.json